This is the latest recevied weather packets stored in our database for station/object PD2BVG. If no packets are shown the sender has not sent any weather packets the latest 10 day(s).
| Time | Temp. | Humidity | Pressure | Rain* | Wind** | Luminosity | Snow |
|---|---|---|---|---|---|---|---|
| 1787898655 | 17.22° C | 100% | 1007.8 hPa | 0 mm | - | 48 W/m² | - |
| 1787898593 | 17.22° C | 100% | 1007.9 hPa | 0 mm | - | 44 W/m² | - |
| 1787898533 | 17.22° C | 100% | 1007.8 hPa | 0 mm | - | 37 W/m² | - |
| 1787898474 | 17.22° C | 100% | 1007.9 hPa | 0 mm | - | 37 W/m² | - |
| 1787898412 | 17.22° C | 100% | 1007.7 hPa | 0 mm | - | 34 W/m² | - |
| 1787898353 | 17.22° C | 100% | 1007.7 hPa | 0 mm | - | 28 W/m² | - |
| 1787898293 | 17.22° C | 100% | 1007.7 hPa | 0 mm | - | 28 W/m² | - |
| 1787898232 | 17.22° C | 100% | 1007.6 hPa | 0 mm | - | 42 W/m² | - |
| 1787898172 | 17.22° C | 100% | 1007.6 hPa | 0 mm | - | 42 W/m² | - |
| 1787898113 | 17.22° C | 100% | 1007.6 hPa | 0 mm | - | 42 W/m² | - |
| 1787898053 | 17.22° C | 100% | 1007.6 hPa | 0 mm | - | 95 W/m² | - |
| 1787897995 | 17.22° C | 100% | 1007.7 hPa | 0 mm | - | 95 W/m² | - |
| 1787897935 | 17.22° C | 100% | 1007.6 hPa | 0 mm | - | 90 W/m² | - |
| 1787897875 | 17.22° C | 100% | 1007.8 hPa | 0 mm | - | 21 W/m² | - |
| 1787897816 | 17.22° C | 100% | 1007.8 hPa | 0 mm | - | 21 W/m² | - |
| 1787897756 | 17.22° C | 100% | 1007.8 hPa | 0 mm | - | 21 W/m² | - |
| 1787897693 | 17.22° C | 100% | 1007.8 hPa | 0 mm | - | 21 W/m² | - |
| 1787897634 | 17.22° C | 100% | 1007.8 hPa | 0 mm | - | 21 W/m² | - |
| 1787897573 | 17.22° C | 100% | 1007.8 hPa | 0 mm | - | 21 W/m² | - |
| 1787897513 | 17.22° C | 100% | 1007.8 hPa | 0 mm | - | 16 W/m² | - |
| 1787897453 | 17.22° C | 100% | 1007.8 hPa | 0 mm | - | 16 W/m² | - |
| 1787897394 | 17.22° C | 100% | 1007.7 hPa | 0 mm | - | 16 W/m² | - |
| 1787897334 | 17.22° C | 100% | 1007.7 hPa | 0 mm | - | 16 W/m² | - |
| 1787897273 | 17.22° C | 100% | 1007.8 hPa | 0 mm | - | 16 W/m² | - |
| 1787897215 | 17.22° C | 100% | 1007.6 hPa | 0 mm | - | 16 W/m² | - |
* Rain latest hour (hover to see other rain measurements)
** Current wind speed in m/s (hover to see current wind gust speed)